Satellite-Ground Cal/Val Region Overpasses Predictions

Prediction of Satellite NPP Overpassing Cal/Val Region: PacNW

Region Location: (Latitude: 10.00, Longitude: 139.50) to (Latitude: 22.70, Longitude: 165.60).

Table of predicted overpasses for the next 14.0 days since TLE Epoch: 1/2/2021
Interval Starting Time Starting Location Ending Time Ending Location
1 01/02/2021 14:39:03 ( 22.69, 165.07) 01/02/2021 14:42:39 ( 10.01, 162.06)
2 01/02/2021 16:20:33 ( 22.68, 139.70) 01/02/2021 16:20:46 ( 21.92, 139.51)
3 01/03/2021 03:29:38 ( 10.05, 147.22) 01/03/2021 03:33:13 ( 22.67, 144.21)
4 01/03/2021 16:01:31 ( 22.67, 144.45) 01/03/2021 16:05:06 ( 10.05, 141.45)
5 01/04/2021 03:10:36 ( 10.00, 151.98) 01/04/2021 03:14:12 ( 22.68, 148.97)
6 01/04/2021 15:42:30 ( 22.65, 149.20) 01/04/2021 15:46:05 ( 10.03, 146.20)
7 01/05/2021 02:51:35 ( 10.02, 156.74) 01/05/2021 02:55:11 ( 22.70, 153.72)
8 01/05/2021 15:23:27 ( 22.70, 153.97) 01/05/2021 15:27:03 ( 10.02, 150.95)
9 01/06/2021 02:32:33 ( 10.03, 161.49) 01/06/2021 02:36:08 ( 22.65, 158.49)
10 01/06/2021 15:04:26 ( 22.69, 158.72) 01/06/2021 15:08:02 ( 10.01, 155.71)
11 01/07/2021 02:14:20 ( 12.87, 165.59) 01/07/2021 02:17:07 ( 22.67, 163.24)
12 01/07/2021 03:55:02 ( 10.05, 140.87) 01/07/2021 03:56:42 ( 15.93, 139.50)
13 01/07/2021 14:45:24 ( 22.67, 163.47) 01/07/2021 14:48:59 ( 10.05, 160.47)
14 01/08/2021 03:35:59 ( 10.01, 145.63) 01/08/2021 03:39:35 ( 22.69, 142.62)
15 01/08/2021 14:29:31 ( 11.62, 165.59) 01/08/2021 14:29:58 ( 10.04, 165.23)
16 01/08/2021 16:07:53 ( 22.65, 142.85) 01/08/2021 16:11:28 ( 10.03, 139.85)
17 01/09/2021 03:16:58 ( 10.02, 150.38) 01/09/2021 03:20:33 ( 22.65, 147.38)
18 01/09/2021 15:48:50 ( 22.69, 147.62) 01/09/2021 15:52:26 ( 10.02, 144.60)
19 01/10/2021 02:57:56 ( 10.04, 155.14) 01/10/2021 03:01:31 ( 22.66, 152.14)
20 01/10/2021 15:29:49 ( 22.68, 152.37) 01/10/2021 15:33:25 ( 10.00, 149.36)
21 01/11/2021 02:38:55 ( 10.06, 159.89) 01/11/2021 02:42:30 ( 22.68, 156.89)
22 01/11/2021 15:10:47 ( 22.66, 157.12) 01/11/2021 15:14:22 ( 10.04, 154.12)
23 01/12/2021 02:19:52 ( 10.01, 164.66) 01/12/2021 02:23:28 ( 22.70, 161.64)
24 01/12/2021 14:51:46 ( 22.65, 161.88) 01/12/2021 14:55:21 ( 10.03, 158.88)
25 01/13/2021 03:42:21 ( 10.04, 144.03) 01/13/2021 03:45:56 ( 22.66, 141.03)
26 01/13/2021 14:33:57 ( 18.41, 165.59) 01/13/2021 14:36:20 ( 10.01, 163.63)
27 01/13/2021 16:14:14 ( 22.68, 141.27) 01/13/2021 16:16:18 ( 15.41, 139.50)
28 01/14/2021 03:23:19 ( 10.05, 148.78) 01/14/2021 03:26:54 ( 22.68, 145.78)
29 01/14/2021 15:55:12 ( 22.67, 146.02) 01/14/2021 15:58:47 ( 10.05, 143.02)
30 01/15/2021 03:04:17 ( 10.01, 153.55) 01/15/2021 03:07:53 ( 22.70, 150.54)
31 01/15/2021 15:36:11 ( 22.65, 150.77) 01/15/2021 15:39:46 ( 10.03, 147.77)
